Wind_Speed
13 13 13 13 12 12 12 12 12 13 13 14 15 16 17 18 19 20 21 21 21 22 22 21 21 21 21 20 19 19 18 17 16 15 14 12 10 8 5 3 2 3 5 6
13 13 13 13 12 12 12 12 12 13 13 14 15 15 16 17 19 20 21 21 21 22 22 22 22 22 22 21 20 19 18 18 17 16 15 14 12 10 8 7 5 4 4 4
13 13 13 13 13 12 12 12 12 12 13 13 14 15 15 16 18 19 20 20 21 22 22 22 22 22 21 21 21 20 19 18 17 17 16 15 14 13 12 10 9 8 6 5
12 12 13 13 13 13 12 12 12 12 13 13 13 14 15 16 17 18 19 20 20 21 21 21 22 22 21 21 20 20 20 19 18 17 17 16 15 14 14 12 11 10 8 7
11 11 12 12 12 12 12 11 11 11 12 12 12 13 14 14 15 16 17 18 19 20 20 21 21 21 21 21 21 21 20 20 19 18 17 17 16 15 15 14 13 11 10 9
8 10 10 11 11 11 11 11 10 10 10 11 12 12 13 13 14 15 16 17 17 18 19 20 20 21 21 21 21 21 21 20 20 19 19 18 17 17 16 15 14 13 12 11
6 7 8 9 9 9 9 9 9 9 9 10 11 12 12 13 14 14 15 16 17 17 18 19 19 20 20 21 22 22 21 21 20 20 19 19 18 17 17 16 15 14 13 13
4 5 6 7 7 7 7 8 8 8 8 9 10 11 11 12 12 13 14 15 16 17 17 18 18 19 19 20 21 21 21 21 21 20 20 20 19 18 17 17 16 15 15 14
3 4 4 5 6 6 6 6 7 7 8 8 8 9 10 11 12 12 13 14 15 16 16 17 17 18 18 19 20 20 20 21 21 21 20 20 20 19 18 17 17 16 16 15
5 4 4 5 5 6 6 6 6 7 7 7 8 8 9 9 10 11 12 12 13 14 15 16 16 17 17 18 19 19 20 20 20 20 20 20 20 19 19 18 18 17 17 16
7 7 6 6 6 6 6 6 6 7 7 7 8 8 8 9 9 10 11 11 12 13 13 14 15 15 16 17 18 18 19 19 20 20 20 20 20 19 19 19 18 18 17 17
10 10 9 8 8 7 7 7 7 7 7 7 8 8 8 9 9 9 10 10 11 11 12 13 14 14 14 15 16 17 18 18 18 19 19 19 19 19 18 18 18 18 18 17
14 13 12 11 10 10 9 8 8 8 8 8 8 8 8 8 9 9 9 9 10 10 11 11 12 13 13 14 14 15 16 16 17 17 18 19 19 19 18 18 17 17 17 17
18 16 15 14 13 12 12 11 10 10 9 9 8 8 8 8 8 9 9 9 10 10 10 10 11 11 12 13 13 14 14 15 15 15 16 17 17 18 18 17 17 17 17 16
21 20 18 17 16 16 15 14 13 12 11 11 10 9 9 9 9 9 9 9 9 9 10 10 10 10 11 11 12 13 13 13 14 14 14 15 15 16 16 16 16 16 16 16
24 23 22 21 20 19 18 17 16 15 14 13 12 12 11 10 10 10 10 10 9 9 9 10 10 10 10 10 11 11 12 12 13 13 13 13 13 13 14 14 15 15 15 15
28 26 26 24 23 22 21 20 19 18 17 16 15 14 13 13 12 11 11 11 11 10 10 10 10 10 10 10 10 10 11 11 11 12 12 12 12 12 12 12 13 13 13 13
32 31 29 28 26 25 24 23 22 21 20 19 18 17 16 15 15 14 13 13 12 12 11 11 11 11 10 10 10 10 10 10 10 11 11 11 11 11 11 11 10 11 11 11
36 34 33 32 30 29 28 26 25 24 23 22 21 20 19 18 17 16 16 15 14 14 13 13 12 12 11 11 11 11 11 11 10 10 10 10 10 10 10 10 10 9 9 9
40 39 37 36 34 33 31 30 29 28 27 26 24 23 22 21 20 19 18 18 17 16 16 15 14 14 13 13 13 12 12 12 11 11 11 11 10 10 10 10 9 9 8 8
45 43 42 40 38 37 36 34 33 32 31 29 28 27 26 25 24 23 21 20 20 19 18 18 17 16 15 15 15 14 14 14 13 13 12 12 12 11 11 10 10 10 9 9
49 48 46 45 43 42 40 39 38 36 35 34 33 32 30 29 28 27 26 24 23 22 21 21 20 19 19 18 17 17 17 16 16 15 15 14 14 13 13 12 12 11 11 11
53 52 51 49 48 47 45 44 42 41 40 39 38 36 35 34 32 31 30 29 27 26 25 25 24 23 22 21 20 20 19 19 19 18 18 17 17 16 16 15 15 14 14 13
57 56 55 54 53 51 50 48 47 46 45 44 43 42 40 38 37 36 35 34 32 31 30 29 28 27 26 25 24 24 23 23 22 22 21 21 20 20 19 19 18 18 17 17
61 60 59 58 57 56 55 54 52 51 50 49 48 46 45 44 42 41 40 38 37 36 35 34 33 31 30 30 29 28 27 27 26 26 25 25 24 24 23 22 22 21 21 20
64 64 63 62 62 61 60 59 58 56 55 54 53 51 50 49 47 46 45 43 42 41 40 39 38 36 35 34 34 33 32 31 31 30 30 29 29 28 27 27 26 25 25 24
65 66 66 66 66 65 64 63 62 61 60 59 58 57 56 54 53 52 50 49 47 46 45 44 43 42 41 40 39 38 37 36 35 35 34 33 33 32 32 31 30 30 29 29
Wind_Direction
39 37 38 40 42 40 38 38 37 35 36 39 41 42 42 42 41 40 40 39 38 39 40 41 42 42 42 43 43 42 44 44 44 44 43 44 43 40 34 18 338 294 280 267
42 40 41 43 42 41 41 41 41 41 43 44 45 45 44 44 43 41 41 40 40 41 43 44 44 43 42 42 42 42 42 42 42 41 39 40 40 39 37 29 16 351 320 293
43 41 41 42 39 40 42 43 43 44 45 46 46 46 46 45 43 41 40 40 41 43 43 43 43 42 41 41 40 40 39 38 37 37 36 35 34 35 33 28 21 13 5 346
43 41 42 40 40 41 43 46 46 46 47 48 48 47 46 44 43 41 41 41 42 42 41 41 41 41 41 40 39 38 37 37 35 34 34 34 33 30 27 24 23 19 15 8
41 40 40 40 40 41 43 46 47 47 46 45 45 44 42 40 40 40 39 39 40 40 40 41 41 40 39 39 38 37 37 36 35 35 34 33 32 29 26 25 25 24 22 17
37 37 37 37 39 41 42 45 44 44 42 40 39 38 37 37 38 38 38 38 37 38 39 39 39 39 39 38 37 37 36 36 35 35 34 33 31 29 28 28 28 27 27 25
24 28 32 31 34 36 38 36 36 37 37 36 36 36 35 35 35 36 36 34 34 35 36 37 38 39 39 38 38 38 37 36 35 34 33 32 31 31 30 30 31 31 30 30
357 6 14 18 22 26 28 27 27 27 29 31 31 32 31 30 31 32 31 31 32 33 34 35 36 37 36 36 36 36 36 35 35 34 33 33 32 32 32 33 33 34 34 34
320 336 347 355 3 8 10 13 15 15 15 17 19 21 23 24 25 26 26 27 28 30 31 32 33 34 34 34 34 34 35 35 35 34 34 34 34 35 35 36 37 37 37 37
286 301 315 327 335 342 349 352 356 360 1 2 5 8 11 13 15 18 20 22 24 26 27 29 30 32 33 33 33 33 34 35 35 34 34 35 35 36 37 38 38 38 39 39
269 278 288 299 311 319 324 330 334 340 346 349 349 351 355 359 2 6 11 16 19 22 23 25 27 28 30 31 32 32 33 33 34 34 35 35 35 36 37 38 38 39 40 41
262 267 273 280 288 297 305 312 317 321 326 333 339 342 344 346 349 353 358 3 9 13 17 19 21 23 24 26 27 29 31 31 32 33 34 34 35 35 36 37 38 39 40 42
259 262 266 270 275 281 286 293 300 307 313 317 323 330 336 341 344 345 348 350 354 359 4 8 12 16 18 20 22 24 26 28 30 31 32 33 33 34 35 36 37 38 40 41
257 259 262 265 268 272 276 280 285 290 296 303 308 314 320 326 332 337 341 344 347 350 354 358 1 6 10 13 15 18 20 22 25 27 29 30 32 33 34 35 36 37 39 40
256 257 260 262 265 267 270 274 277 280 283 288 294 300 305 310 316 322 327 331 337 341 345 348 351 354 358 3 8 11 13 15 17 20 23 26 28 29 31 33 34 36 37 39
255 256 258 260 263 265 267 269 272 274 277 279 283 287 292 298 303 307 311 315 319 325 332 337 341 344 346 349 356 1 5 8 11 13 14 17 20 22 25 28 30 32 34 36
254 255 256 258 260 262 265 267 269 270 272 274 277 280 283 287 291 295 299 303 306 308 312 319 326 332 337 341 344 348 353 357 1 4 7 8 10 13 16 20 24 27 29 31
253 254 254 256 258 260 262 264 265 267 269 271 273 275 278 280 283 286 289 293 297 299 302 305 309 315 321 327 333 337 340 344 348 352 355 358 360 2 5 9 12 17 21 24
252 253 253 254 256 257 259 261 263 264 266 268 270 271 273 276 278 280 282 284 287 290 293 296 298 302 306 310 316 322 325 329 332 336 341 344 346 348 350 354 358 3 6 11
251 251 252 253 254 255 257 258 260 262 263 265 267 268 270 272 274 276 277 278 280 282 284 286 290 292 295 298 302 307 310 313 316 320 323 328 332 334 335 336 338 342 347 351
250 250 251 252 253 254 255 256 258 259 261 262 264 265 266 268 270 271 273 274 275 277 279 280 282 284 287 289 292 295 298 301 303 305 307 310 313 316 319 321 322 322 324 326
249 249 250 251 251 252 253 254 256 257 258 260 261 262 264 265 266 267 269 270 271 273 275 276 277 278 280 282 285 287 289 291 293 294 296 296 298 300 303 305 306 307 308 309
247 248 249 249 250 250 251 252 253 255 256 257 258 260 261 262 263 265 266 267 268 269 271 272 274 275 277 278 279 281 283 285 286 287 287 288 289 289 290 292 294 295 296 296
246 246 247 248 248 249 250 250 251 252 254 255 256 258 259 260 261 262 263 265 266 267 268 269 271 272 274 275 276 277 278 279 280 281 282 282 282 283 283 283 283 285 286 287
244 245 246 246 247 247 248 248 249 250 252 253 254 255 257 258 259 260 261 262 263 265 266 267 269 270 271 272 273 274 275 276 276 277 277 277 277 277 277 278 278 278 279 280
244 243 243 244 245 246 246 247 248 249 250 251 252 253 255 256 257 258 260 261 262 263 264 265 267 268 269 270 271 272 272 273 273 273 273 273 273 273 273 273 274 274 275 275
245 243 242 242 242 243 245 245 246 247 248 249 251 252 253 254 255 257 258 259 260 262 263 264 265 266 267 268 269 270 270 270 270 270 270 270 271 271 271 271 271 272 272 273
Height
5889 5886 5883 5881 5878 5876 5874 5871 5869 5866 5863 5860 5857 5853 5850 5847 5843 5839 5835 5831 5827 5823 5819 5815 5811 5808 5804 5800 5797 5794 5791 5788 5785 5783 5780 5778 5776 5775 5773 5772 5771 5770 5770 5769
5890 5887 5885 5882 5880 5878 5875 5873 5870 5867 5865 5862 5859 5856 5853 5850 5846 5843 5839 5835 5831 5827 5823 5819 5815 5812 5808 5804 5801 5798 5794 5791 5788 5786 5783 5780 5778 5776 5775 5773 5771 5769 5768 5767
5891 5889 5887 5884 5882 5879 5877 5874 5872 5869 5868 5864 5861 5858 5856 5853 5849 5846 5843 5839 5835 5831 5827 5823 5819 5816 5812 5808 5805 5801 5798 5795 5792 5788 5785 5783 5780 5778 5775 5773 5771 5769 5767 5766
5892 5891 5888 5888 5883 5881 5879 5876 5874 5871 5869 5866 5864 5861 5858 5855 5852 5849 5846 5842 5839 5835 5831 5827 5824 5820 5816 5812 5809 5805 5801 5798 5794 5791 5788 5785 5782 5780 5777 5774 5771 5769 5767 5765
5894 5891 5890 5888 5885 5882 5880 5878 5876 5874 5871 5869 5866 5864 5861 5858 5855 5852 5849 5846 5842 5839 5835 5831 5827 5824 5820 5816 5812 5809 5805 5801 5798 5794 5791 5788 5785 5782 5778 5775 5773 5770 5767 5765
5894 5892 5891 5890 5887 5884 5883 5880 5878 5875 5873 5871 5868 5866 5864 5861 5858 5855 5852 5849 5845 5842 5838 5835 5831 5827 5824 5820 5816 5812 5808 5805 5801 5797 5794 5790 5787 5784 5780 5777 5774 5771 5769 5766
5894 5893 5891 5890 5887 5885 5885 5883 5879 5877 5875 5872 5870 5868 5866 5863 5860 5857 5854 5851 5848 5845 5842 5838 5834 5831 5827 5823 5820 5816 5812 5808 5804 5801 5797 5793 5790 5786 5783 5779 5776 5773 5770 5767
5894 5893 5893 5889 5887 5886 5885 5882 5880 5878 5876 5874 5872 5869 5867 5864 5862 5859 5857 5854 5850 5847 5844 5841 5837 5834 5831 5827 5823 5819 5815 5812 5808 5804 5800 5796 5793 5789 5786 5782 5779 5776 5773 5770
5894 5894 5891 5889 5887 5886 5884 5882 5880 5879 5877 5875 5873 5870 5868 5866 5863 5861 5858 5856 5853 5850 5847 5843 5840 5837 5833 5830 5826 5823 5819 5815 5811 5807 5804 5800 5796 5792 5789 5786 5782 5779 5776 5773
5891 5890 5889 5888 5886 5885 5883 5882 5880 5878 5877 5875 5873 5871 5869 5867 5864 5862 5859 5857 5854 5851 5849 5845 5842 5839 5836 5833 5829 5825 5822 5818 5814 5811 5807 5803 5800 5796 5792 5789 5786 5782 5779 5776
5888 5888 5887 5886 5885 5883 5882 5880 5879 5878 5876 5874 5872 5871 5869 5867 5865 5863 5860 5858 5855 5853 5850 5847 5844 5841 5838 5835 5832 5828 5825 5821 5818 5814 5810 5807 5803 5799 5796 5793 5789 5786 5783 5780
5886 5885 5884 5884 5883 5881 5880 5879 5878 5876 5875 5873 5871 5870 5868 5866 5864 5862 5860 5858 5856 5854 5851 5848 5846 5843 5840 5837 5834 5831 5827 5824 5821 5817 5814 5810 5806 5803 5800 5796 5793 5790 5787 5783
5881 5881 5880 5880 5879 5878 5878 5876 5875 5874 5873 5871 5870 5868 5867 5865 5863 5862 5860 5858 5856 5854 5851 5849 5846 5844 5841 5838 5835 5832 5829 5826 5823 5820 5817 5813 5810 5806 5803 5800 5797 5793 5790 5787
5876 5876 5876 5876 5875 5875 5874 5873 5872 5871 5870 5869 5868 5866 5865 5863 5862 5860 5859 5857 5855 5853 5851 5849 5847 5844 5842 5839 5836 5834 5831 5828 5825 5822 5819 5816 5813 5809 5806 5803 5800 5797 5794 5791
5870 5870 5871 5871 5870 5870 5869 5869 5868 5868 5867 5866 5865 5864 5862 5861 5860 5858 5857 5855 5854 5852 5850 5848 5846 5844 5842 5839 5837 5834 5832 5829 5826 5824 5821 5818 5815 5812 5809 5806 5803 5800 5797 5794
5863 5863 5864 5864 5864 5864 5864 5864 5864 5863 5862 5862 5861 5860 5859 5858 5857 5856 5855 5853 5852 5850 5849 5847 5845 5843 5841 5839 5837 5834 5832 5829 5827 5824 5822 5819 5817 5814 5811 5808 5806 5803 5800 5797
5855 5855 5856 5857 5857 5857 5858 5858 5858 5857 5857 5857 5856 5856 5855 5854 5853 5852 5851 5850 5849 5848 5846 5845 5843 5841 5839 5837 5835 5833 5831 5829 5827 5825 5822 5820 5817 5815 5813 5810 5808 5805 5803 5800
5845 5846 5847 5848 5849 5850 5850 5851 5851 5851 5851 5851 5851 5850 5850 5849 5849 5848 5847 5846 5845 5844 5843 5842 5840 5839 5837 5836 5834 5832 5830 5828 5826 5824 5822 5820 5818 5815 5813 5811 5809 5807 5804 5802
5834 5835 5837 5838 5839 5840 5841 5842 5843 5843 5844 5844 5844 5844 5844 5844 5843 5843 5842 5842 5841 5840 5839 5838 5837 5835 5834 5833 5831 5830 5828 5826 5825 5823 5821 5819 5817 5815 5813 5811 5809 5807 5805 5803
5821 5823 5825 5827 5829 5830 5832 5833 5834 5834 5835 5836 5836 5836 5837 5837 5837 5837 5836 5836 5835 5835 5834 5833 5832 5831 5830 5829 5828 5826 5825 5823 5822 5820 5819 5817 5815 5813 5812 5810 5808 5806 5805 5803
5807 5809 5812 5814 5817 5819 5820 5822 5823 5824 5825 5826 5827 5828 5828 5829 5829 5829 5829 5829 5829 5828 5828 5827 5827 5826 5825 5824 5823 5822 5821 5820 5818 5817 5816 5814 5813 5811 5810 5808 5807 5805 5803 5802
5791 5794 5797 5800 5803 5805 5807 5809 5811 5813 5814 5816 5817 5818 5819 5819 5820 5820 5821 5821 5821 5821 5820 5820 5820 5819 5819 5818 5817 5816 5815 5814 5813 5812 5811 5810 5809 5808 5806 5805 5804 5802 5801 5800
5774 5778 5781 5784 5787 5790 5793 5795 5797 5800 5802 5803 5805 5806 5807 5809 5810 5811 5811 5812 5812 5812 5812 5812 5812 5812 5811 5811 5810 5810 5809 5808 5807 5806 5805 5804 5804 5803 5802 5801 5799 5798 5797 5796
5756 5759 5763 5766 5769 5773 5776 5779 5782 5784 5787 5789 5791 5793 5794 5796 5798 5799 5799 5800 5801 5802 5802 5802 5803 5803 5802 5802 5802 5801 5801 5800 5800 5799 5798 5798 5797 5796 5795 5795 5794 5793 5792 5791
5735 5739 5743 5747 5751 5754 5758 5761 5764 5767 5770 5773 5775 5777 5780 5782 5783 5785 5786 5788 5789 5790 5790 5791 5791 5792 5792 5792 5792 5792 5792 5791 5791 5790 5790 5789 5789 5788 5788 5787 5786 5786 5785 5785
5714 5718 5722 5726 5730 5734 5738 5742 5745 5749 5752 5755 5758 5760 5763 5765 5767 5769 5771 5773 5774 5776 5777 5778 5779 5779 5780 5780 5781 5781 5781 5781 5781 5780 5780 5780 5779 5779 5779 5778 5778 5778 5777 5777
5690 5695 5699 5704 5708 5712 5716 5720 5724 5728 5732 5735 5738 5742 5744 5747 5750 5752 5754 5756 5758 5760 5762 5763 5764 5765 5766 5767 5767 5768 5768 5768 5769 5768 5768 5768 5768 5768 5768 5768 5768 5768 5767 5767